Regional Weather Roundup
Issued by NWS

Home | Current Version | Previous Version | Graphics & Text | Print | Product List | Glossary On
Versions: 1 2 3 4 5 6 7 8 9 10 11 12 13 14 15 16 17 18 19 20 21 22 23 24 25 26 27 28 29 30 31 32 33 34 35 36 37 38 39 40 41 42 43 44 45 46 47 48 49 50
000
ASUS45 KPSR 240710
RWRAZ

ARIZONA REGIONAL HOURLY WEATHER ROUNDUP
NATIONAL WEATHER SERVICE PHOENIX AZ
1200 AM MST FRI OCT 24 2014

NOTE: FAIR INDICATES FEW OR NO CLOUDS BELOW 12,000 FEET WITH NO
SIGNIFICANT WEATHER AND/OR OBSTRUCTIONS TO VISIBILITY.

AZZ001>003-036-240800-
NORTHWEST ARIZONA

CITY           SKY/WX    TMP DP  RH WIND       PRES   REMARKS
BULLHEAD CITY  CLEAR     73  39  29 CALM      29.98R
KINGMAN        CLEAR     57  38  48 SE13      30.13S
$$

AZZ004>008-015-016-018-240800-
NORTH CENTRAL ARIZONA

CITY           SKY/WX    TMP DP  RH WIND       PRES   REMARKS
GRAND CANYON   CLEAR     35  25  66 CALM      30.33F HAZE
PRESCOTT       CLEAR     52  39  61 CALM      30.24S
FLAGSTAFF      PTCLDY    38  31  76 CALM      30.36S
PAYSON         CLEAR     55  39  54 CALM      30.27R
PAGE           PTCLDY    59  34  39 CALM      30.19S
$$

AZZ009>014-017-240800-
NORTHEAST ARIZONA

CITY           SKY/WX    TMP DP  RH WIND       PRES   REMARKS
WINSLOW        PTCLDY    49  40  71 E3        30.25R
SAINT JOHNS    MOCLDY    52  40  63 SE3       30.29R
WINDOW ROCK    PTCLDY    40  28  62 S3        30.36S
SHOW LOW       PTCLDY    46  36  66 S6        30.35R
$$

AZZ023-240800-
GREATER PHOENIX AREA

CITY           SKY/WX    TMP DP  RH WIND       PRES   REMARKS
PHOENIX        CLEAR     77  48  35 SE5       29.97S
BUCKEYE          N/A     64  45  48 N7        29.99R
LUKE AFB       CLEAR     67  48  49 N7        29.98S
DEER VALLEY    CLEAR     73  44  35 CALM      30.00R
SCOTTSDALE     CLEAR     69  49  48 CALM      30.01R
MESA-GATEWAY   CLEAR     68  50  52 SE3       30.01S
$$

AZZ027-028-240800-
SOUTHWEST MARICOPA COUNTY AND PINAL COUNTY

CITY           SKY/WX    TMP DP  RH WIND       PRES   REMARKS
CASA GRANDE    CLEAR     66  46  48 CALM      30.01S
GILA BEND      FAIR      73  49  41 S7        29.98R
$$

AZZ503-504-507>509-240800-
SOUTHEAST ARIZONA

CITY           SKY/WX    TMP DP  RH WIND       PRES   REMARKS
TUCSON         CLEAR     67  47  48 SE6       30.10R
DAVIS-MONTHAN  CLEAR     65  46  50 SE7       30.08R
NOGALES        CLEAR     56  45  66 NE3       30.16R
SIERRA VISTA   CLEAR     59  45  58 SW6       30.21S
DOUGLAS        CLEAR     54  45  71 N7        30.18S
SAFFORD        CLEAR     60  51  72 CALM      30.12R
$$

AZZ020-021-025-026-031-240800-
SOUTHWEST ARIZONA

CITY           SKY/WX    TMP DP  RH WIND       PRES   REMARKS
YUMA           CLEAR     75  49  39 S5        29.92S
$$

CAZ031-033-041-043-047-048-061-240800-
SOUTHERN CALIFORNIA

CITY           SKY/WX    TMP DP  RH WIND       PRES   REMARKS
DOWNTOWN L.A.  CLEAR     66  59  78 CALM      29.96R
L.A. AIRPORT   CLEAR     68  66  93 CALM      29.96R
SAN DIEGO      CLEAR     67  60  78 CALM      29.96S
BURBANK        CLEAR     65  45  48 CALM      29.97S
ONTARIO        CLEAR     67  47  48 CALM      29.98S
RIVERSIDE      CLEAR     66  50  56 SE3       29.98S
PALM SPRINGS   CLEAR     77  34  21 NW8       29.96F
EL CENTRO NAS  CLEAR     74  41  30 SW3       29.91S
IMPERIAL       CLEAR     71  50  47 W6        29.90S
BLYTHE         CLEAR     78  44  29 CALM      29.93S
NEEDLES        CLEAR     73  38  27 VRB3      29.97S
$$

NVZ020-UTZ003-240800-
SOUTHERN NEVADA-UTAH

CITY           SKY/WX    TMP DP  RH WIND       PRES   REMARKS
LAS VEGAS      CLEAR     68  35  29 SW9       30.00S
SALT LAKE CITY MOCLDY    53  41  63 NW8       30.09R
$$

NMZ009-TXZ055-240800-
NEW MEXICO-WEST TEXAS

CITY           SKY/WX    TMP DP  RH WIND       PRES   REMARKS
ALBUQUERQUE    CLEAR     61  36  39 CALM      30.29R
EL PASO        CLEAR     64  52  64 CALM      30.18R
$$


........................KEY........................
SKY/WX - SKY CONDITION/WEATHER
TMP    - TEMPERATURE IN FAHRENHEIT
DP     - DEW POINT IN FAHRENHEIT
RH     - RELATIVE HUMIDITY IN PERCENT
WIND   - DIRECTION AND SPEED IN MILES PER HOUR (MPH)
VRB    - VARIABLE WIND DIRECTION
PRES   - MEAN SEA LEVEL PRESSURE IN INCHES OF MERCURY
         F - FALLING PRESSURE   R - RISING PRESSURE
         S - STEADY PRESSURE
VSB    - VISIBILITY IN MILES
HX     - HEAT INDEX IN FAHRENHEIT
WCI    - WIND CHILL INDEX IN FAHRENHEIT
TC     - TEMPERATURE IN CELSIUS WHICH IS ALSO KNOWN AS
         TEMPERATURE IN CENTIGRADE
AFB    - AIR FORCE BASE
         LUKE AFB IS LUKE AIR FORCE BASE
         DAVIS-MONTHAN IS DAVIS-MONTHAN AIR FORCE BASE
NAS    - NAVAL AIR STATION
         EL CENTRO NAS IS EL CENTRO NAVAL AIR STATION
N/A    - NOT AVAILABLE



USA.gov is the U.S. government's official web portal to all federal, state and local government web resources and services.